Miscellaneous Local Product
Issued by NWS North Platte, NE

Home | Current Version | Previous Version | Graphics & Text | Print | Product List | Glossary On
Versions: 1 2 3 4 5 6 7 8 9 10 11 12 13 14 15 16 17 18 19 20 21 22 23 24 25 26 27 28 29 30 31 32 33 34 35 36 37 38 39 40 41 42 43 44 45 46 47 48 49 50
000
AXUS43 KLBF 020110
MISLBF


WESTERN AND NORTH CENTRAL NEBRASKA HOURLY WEATHER ROUNDUP
NATIONAL WEATHER SERVICE NORTH PLATTE NE
800 PM CDT WED APR 01 2015

***STATIONS NOT REPORTING VARIABLES SUCH AS SKY/WEATHER OR
PRESSURE ARE PROVIDED BY THE NEBRASKA DEPARTMENT OF
ROADS...RAWS...AND APRS NETWORKS...AND ARE NOT UNDER
NATIONAL WEATHER SERVICE QUALITY CONTROL***

...OBSERVATIONS IN AND NEAR THE EASTERN PANHANDLE OF NEBRASKA...

CITY           SKY/WX    TMP DP  RH WIND       PRES   REMARKS
PINE RIDGE     MOCLDY    50  22  33 N13G23    29.82R
CHADRON        CLOUDY    52  30  43 NE8       29.83R
ALLIANCE       CLOUDY    50  28  42 N20       29.80R
SIDNEY         CLOUDY    57  25  29 N8G22     29.80R
WHITECLAY        N/A     48  23  37 S12         N/A
CRESCENT LAKE    N/A     52  29  41 NW17G26     N/A
$$

...OBSERVATIONS IN NORTH CENTRAL NEBRASKA...

CITY           SKY/WX    TMP DP  RH WIND       PRES   REMARKS
VALENTINE      CLOUDY    57  25  29 N21G29    29.75R
THEDFORD       CLOUDY    61  33  35 N10G18    29.72R
AINSWORTH      CLOUDY    60  29  30 N15       29.71S
O`NEILL        PTCLDY    63  37  37 NW17G24   29.65R
ORD            PTCLDY    64  37  36 N24G33    29.59R
BROKEN BOW     MOCLDY    63  38  39 N23G32    29.61S
BROWNLEE         N/A     62  33  34 E16         N/A
SPRINGVIEW       N/A     61  30  31 NW7         N/A
BREWSTER         N/A     65  36  34 E15         N/A
ROSE             N/A     63  37  38 S14         N/A
NEWPORT          N/A     63  33  32 NW16        N/A
SARGENT          N/A     63  38  39 N5G14       N/A
COMSTOCK         N/A     69  42  36 N16         N/A
EWING            N/A     63  41  44 N16G26      N/A
$$

...OBSERVATIONS IN SOUTHWEST NEBRASKA AND FAR NORTHEAST COLORADO...

CITY           SKY/WX    TMP DP  RH WIND       PRES   REMARKS
WRAY           LGT RAIN  58  43  56 N12G18    29.74R
HOLYOKE        LGT RAIN  63  41  45 NE12      29.78R
IMPERIAL       MOCLDY    67  35  30 NW16G28   29.70R
OGALLALA       CLOUDY    63  36  37 NW14      29.73R
NORTH PLATTE   MOCLDY    63  36  36 N20G25    29.67R
MCCOOK         PTCLDY    71  32  23 N26G33    29.56R
LEXINGTON      MOCLDY    65  37  34 N20       29.59R
SUTHERLAND       N/A     63  32  32 N15         N/A
BRADY            N/A     64  38  38 CALM        N/A
GOTHENBURG       N/A     68  35  29 N17         N/A
CALLAWAY         N/A     66  41  40 N18         N/A
$$

...NORTH PLATTE AREA...

CITY           SKY/WX    TMP DP  RH WIND       PRES   REMARKS
AIRPORT        MOCLDY    63  36  36 N20G25    29.67R
DOWNTOWN         N/A     64  38  38 N9G20       N/A
$$

...SOME WEATHER OBSERVATIONS FROM AROUND THE REGION...

CITY           SKY/WX    TMP DP  RH WIND       PRES   REMARKS
DENVER         CLOUDY    53  38  56 SE7       29.77F
LARAMIE        PTCLDY    45   6  20 W20G29    29.85S
CHEYENNE       CLOUDY    53   7  15 NW20G31   29.82R
SCOTTSBLUFF    CLOUDY    49  28  44 N20       29.84R
RAPID CITY     PTCLDY    50  19  29 NW15      29.81R
PIERRE         MOCLDY    55  23  28 NW13      29.72R
WINNER         FAIR      60  22  23 NW23G36   29.73R
SIOUX FALLS    CLOUDY    64  39  39 NW5       29.59R
OMAHA          MOCLDY    77  50  38 S22       29.53F
GRAND ISLAND   MOCLDY    62  48  60 N9        29.56R THUNDER
KANSAS CITY    PTCLDY    64  54  69 S17G25    29.71F
WICHITA        PTCLDY    78  54  43 S23       29.60F
HAYS           MOCLDY    79  43  27 S12       29.50F
LIBERAL        PTCLDY    77  27  15 SW10      29.58F
GOODLAND       MOCLDY    65  34  31 NW37G59   29.66R HAZE
$$



USA.gov is the U.S. government's official web portal to all federal, state and local government web resources and services.